Regional Weather Roundup
Issued by NWS

Home | Current Version | Previous Version | Text Only | Print | Product List | Glossary Off
Versions: 1 2 3 4 5 6 7 8 9 10 11 12 13 14 15 16 17 18 19 20 21 22 23 24 25 26 27

000
ASUS45 KCYS 180410
RWRWY

WYOMING REGIONAL WEATHER ROUNDUP
NATIONAL WEATHER SERVICE CHEYENNE WY
1000 PM MDT THU AUG 17 2017

NOTE:  "FAIR" INDICATES FEW OR NO CLOUDS BELOW 12,000 FEET
WITH NO SIGNIFICANT WEATHER AND/OR OBSTRUCTIONS TO VISIBILITY.

WYZ001-180500-
YELLOWSTONE NATIONAL PARK

CITY           SKY/WX    TMP DP  RH WIND       PRES   REMARKS
LK YELLOWSTONE   N/A     47  40  76 CALM      30.36R
W YELLOWSTONE  NOT AVBL

$$
WYZ002>013-054>058-071-098>099-180500-
NORTHERN WYOMING

CITY           SKY/WX    TMP DP  RH WIND       PRES   REMARKS
JACKSON        FAIR     N/A N/A N/A SE5       30.27R
CODY           FAIR      64  41  42 W5        30.16R
GREYBULL       FAIR      72  33  24 NW6       30.04R
WORLAND        FAIR      62  44  51 CALM      30.06R
SHERIDAN       FAIR      62  44  51 S7        30.06R
BUFFALO        FAIR      63  39  41 SW8       30.13R
GILLETTE       FAIR      58  46  64 SE6       30.08R
HULETT         FAIR      57  46  67 S8        30.07S
NEWCASTLE      FAIR      59  43  55 CALM      30.08R

$$
WYZ014>020-022>026-101>103-180500-
CENTRAL WYOMING

CITY           SKY/WX    TMP DP  RH WIND       PRES   REMARKS
BIG PINEY      FAIR      51  32  48 N9        30.32R
PINEDALE       FAIR      52  36  54 W6        30.33R
DUBOIS         FAIR      59  32  36 NW8       30.30R
LANDER           N/A    N/A N/A N/A MISG      30.16R
RIVERTON       FAIR      69  36  29 NE8       30.16R
CASPER         FAIR      63  43  48 E12       30.16R
DOUGLAS        FAIR      58  47  66 CALM      30.16R

$$
WYZ021-027>030-104>119-180500-
SOUTHERN WYOMING

CITY           SKY/WX    TMP DP  RH WIND       PRES   REMARKS
EVANSTON       FAIR      63  30  28 W9        30.32R
KEMMERER         N/A    N/A N/A N/A N8        30.33R
FORT BRIDGER   FAIR      61  31  32 SW7       30.34R
ROCK SPRINGS   FAIR      68  29  23 W14       30.27R
RAWLINS        FAIR      67  29  24 W12       30.23R
SARATOGA       FAIR      61  41  48 SW13G21   30.26S
LARAMIE        FAIR      65  36  34 W13       30.27R
CHEYENNE       FAIR      65  44  46 NE7       30.20R
TORRINGTON     FAIR      67  47  48 E7        30.07R
PINE BLUFFS    FAIR      64  45  48 N6        30.15R

$$




USA.gov is the U.S. government's official web portal to all federal, state and local government web resources and services.